Flag for Canada Weather past 2 weeks in Sanikiluaq, Nunavut Territory, Canada

Now
16 °F

Light snow. Overcast.


Feels Like: 5 °F
Forecast: 12 / 17 °F
Wind: 8 mph from Southwest

Location: Kuujjuarapik

Current Time: Dec 20, 2014 at 7:39:34 PM

Latest Report: Dec 20, 2014 at 7:00 PM


Visibility: 9 mi

Pressure: 30.28 "Hg

Humidity: 86%

Dew point: 12 °F

Location of SanikiluaqLocation

Historic Weather in Sanikiluaq — Graph

°F

Sanikiluaq temperature yesterday

Maximum temperature yesterday: 9 °F (at 7:00 PM)
Minimum temperature yesterday: 5 °F (at 12:00 AM)
Average temperature yesterday: 6 °F

Past Weeks' High & Low Weather Summary

 TemperatureHumidityPressure
High25 °F (Dec 14, 4:54 AM)100% (Dec 12, 1:02 AM)30.69 "Hg (Dec 12, 1:02 AM)
Low-13 °F (Dec 6, 12:00 AM)52% (Dec 11, 9:00 AM)29.72 "Hg (Dec 13, 1:00 PM)
Average7 °F84%30.20 "Hg
* Reported Dec 5 6:00 PM — Dec 20 6:00 PM, Sanikiluaq, Weather by CustomWeather, © 2014

Note: Actual official high and low records may vary slightly from our data, if they occured in-between our weather recording intervals... More about our weather records

Advertising

Sanikiluaq weather history for previous 24 hours

 ConditionsComfort  
Time TempWeatherWind HumidityBarometerVisibility
6:00 PM
Dec 20
14 °FLight snow. Overcast.9 mph92%30.27 "Hg9 mi
5:00 PM14 °FLight snow. Overcast.12 mph92%30.27 "Hg9 mi
4:00 PM14 °FLight snow. Overcast.13 mph85%30.26 "Hg9 mi
3:00 PM14 °FLight snow. Cloudy.13 mph85%30.25 "Hg9 mi
2:58 PM14 °FLight snow. Cloudy.14 mph85%30.25 "Hg8 mi
2:00 PM12 °FLight snow. Partly sunny.13 mph92%30.24 "Hg9 mi
1:49 PM12 °FLight snow. Overcast.13 mph92%30.24 "Hg6 mi
1:02 PM12 °FLight snow. Partly sunny.12 mph85%30.24 "Hg3 mi
12:00 PM12 °FLight snow. Mostly cloudy.10 mph92%30.24 "Hg3 mi
11:58 AM12 °FLight snow. Mostly cloudy.9 mph92%30.24 "Hg3 mi
11:00 AM12 °FLight snow. Low clouds.10 mph85%30.24 "Hg3 mi
10:00 AM10 °FLight snow. Low clouds.10 mph92%30.24 "Hg3 mi
9:53 AM10 °FLight snow. Mostly cloudy.12 mph92%30.24 "Hg5 mi
9:00 AM10 °FLight snow. Overcast.14 mph85%30.24 "Hg7 mi
8:54 AM10 °FLight snow. Overcast.12 mph85%30.23 "Hg6 mi
8:03 AM9 °FLight snow. Overcast.7 mph85%30.22 "Hg2 mi
7:00 AM7 °FLight snow. Overcast.8 mph85%30.22 "Hg3 mi
6:00 AM5 °FLight snow. Overcast.12 mph85%30.21 "Hg9 mi
5:00 AM5 °FOvercast.10 mph85%30.22 "Hg9 mi
4:00 AM3 °FClear.14 mph85%30.22 "Hg9 mi
3:00 AM5 °FClear.14 mph85%30.22 "Hg9 mi
2:00 AM5 °FClear.9 mph85%30.22 "Hg9 mi
1:00 AM3 °FClear.10 mph85%30.21 "Hg9 mi
12:00 AM5 °FClear.9 mph85%30.22 "Hg9 mi
11:00 PM
Dec 19
5 °FClear.8 mph92%30.22 "Hg9 mi
10:00 PM5 °FClear.7 mph92%30.23 "Hg9 mi
9:00 PM7 °FLight snow. Clear.8 mph85%30.23 "Hg9 mi
8:00 PM7 °FLight snow. Clear.8 mph92%30.23 "Hg9 mi
7:00 PM9 °FLight snow. Overcast.8 mph85%30.23 "Hg9 mi
Weather by CustomWeather, © 2014

See weather overviewHow to use our weather pages